Вернуться в каталог

SL-8 R/B

АктивенLEO
NORAD 11304·ROCKET BODY·🇷🇺 Russia

Запущен Mar 15, 1979 с Plesetsk Cosmodrome

Loading…

Ближайшие Пролёты (ближайшие 24 часа)

TLE

СвежийSource: Space-Track

Эпоха: Sep 14, 2026, 21:04 UTC

1 11304U 79024J   26257.87817662 -.00000107  00000-0 -80725-3 0  9993
2 11304  74.0370 233.0184 0145365 253.7610 104.7391 12.24254136122843

Отслеживайте SL-8 R/B в реальном времени с AllMySat

Download on the App Store